Weather History for Franklin, VA

Change the Weather History Date:

Monday, February 4, 2013

  Actual Average (KSFQ) Record (KSFQ)
Temperature  
Mean Temperature 35 °F -  
Max Temperature 46 °F 48 °F 72 °F (1962)
Min Temperature 24 °F 30 °F 9 °F (1951)
Degree Days  
Heating Degree Days 30    
Moisture  
Dew Point 21 °F    
Average Humidity 55    
Maximum Humidity 93    
Minimum Humidity 32    
Precipitation  
Precipitation 0.00 in - - ()
Sea Level Pressure  
Sea Level Pressure 30.06 in    
Wind  
Wind Speed 5 mph (SW)    
Max Wind Speed 10 mph    
Max Gust Speed 20 mph    
Visibility 10 miles    
Events      
Averages and records for this station are not official NWS values.
T = Trace of Precipitation, MM = Missing Value Source: NWS Daily Summary

Daily Weather History Graph

Daily Weather History Graph

Search for Another Location

Airport:

Trip Planner

Search our weather history database for the weather conditions in past years. The results will help you decide how hot, cold, wet, or windy it might be!

Date:

Astronomy

Feb. 04, 2013 Rise Set
Actual Time 7:06 AM EST 5:36 PM EST
Civil Twilight 6:39 AM EST 6:03 PM EST
Nautical Twilight 6:09 AM EST 6:34 PM EST
Astronomical Twilight 5:38 AM EST 7:04 PM EST
Moon 1:38 AM EST (2/4) 12:00 PM EST (2/4)
Length of Visible Light 11h 24m
Length of Day
10h 30m
Last Quarter, 37% of the Moon is Illuminated
Feb 4
Last Quarter
Feb 10
New
Feb 17
First Quarter
Feb 25
Full
Mar 4
Last Quarter

Hourly Weather History & Observations

Time (EST) Temp. Windchill Dew Point Humidity Pressure Visibility Wind Dir Wind Speed Gust Speed Precip Events Conditions
12:15 AM 37.4 °F 30.3 °F 21.2 °F 52% 29.97 in 10.0 mi WNW 10.4 mph 19.6 mph N/A   Clear
12:35 AM 37.4 °F 30.8 °F 21.2 °F 52% 29.97 in 10.0 mi WNW 9.2 mph - N/A   Clear
12:55 AM 35.6 °F 30.7 °F 21.2 °F 56% 29.98 in 10.0 mi West 5.8 mph - N/A   Clear
1:15 AM 35.6 °F 30.7 °F 21.2 °F 56% 29.99 in 10.0 mi West 5.8 mph - N/A   Clear
1:35 AM 33.8 °F 29.6 °F 21.2 °F 60% 29.99 in 10.0 mi WNW 4.6 mph - N/A   Clear
1:55 AM 33.8 °F 30.8 °F 21.2 °F 60% 30.00 in 10.0 mi West 3.5 mph - N/A   Clear
2:15 AM 33.8 °F 29.6 °F 21.2 °F 60% 30.01 in 10.0 mi WNW 4.6 mph - N/A   Scattered Clouds
2:35 AM 33.8 °F 29.6 °F 21.2 °F 60% 30.01 in 10.0 mi WNW 4.6 mph - N/A   Scattered Clouds
2:55 AM 33.8 °F 30.8 °F 21.2 °F 60% 30.02 in 10.0 mi NW 3.5 mph - N/A   Clear
3:15 AM 28.4 °F 23.3 °F 21.2 °F 74% 30.02 in 10.0 mi West 4.6 mph - N/A   Clear
3:35 AM 30.2 °F - 21.2 °F 69% 30.02 in 10.0 mi Calm Calm - N/A   Clear
3:55 AM 30.2 °F 25.4 °F 21.2 °F 69% 30.03 in 10.0 mi WNW 4.6 mph - N/A   Clear
4:15 AM 30.2 °F - 21.2 °F 69% 30.04 in 10.0 mi Calm Calm - N/A   Clear
5:55 AM 24.8 °F - 21.2 °F 86% 30.07 in 10.0 mi Calm Calm - N/A   Clear
6:15 AM 26.6 °F - 21.2 °F 80% 30.08 in 10.0 mi Calm Calm - N/A   Clear
6:35 AM 26.6 °F - 21.2 °F 80% 30.08 in 10.0 mi Calm Calm - N/A   Clear
6:55 AM 24.8 °F - 21.2 °F 86% 30.09 in 10.0 mi Calm Calm - N/A   Clear
7:15 AM 24.8 °F - 21.2 °F 86% 30.10 in 10.0 mi Calm Calm - N/A   Clear
7:35 AM 26.6 °F - 21.2 °F 80% 30.11 in 10.0 mi Calm Calm - N/A   Clear
7:55 AM 26.6 °F - 24.8 °F 93% 30.12 in 10.0 mi Calm Calm - N/A   Clear
8:15 AM 28.4 °F - 24.8 °F 86% 30.14 in 10.0 mi Calm Calm - N/A   Clear
8:35 AM 30.2 °F - 23.0 °F 75% 30.15 in 10.0 mi Calm Calm - N/A   Clear
8:55 AM 30.2 °F - 23.0 °F 75% 30.15 in 10.0 mi Calm Calm - N/A   Clear
9:15 AM 33.8 °F - 24.8 °F 70% 30.15 in 10.0 mi Calm Calm - N/A   Clear
9:35 AM 33.8 °F - 21.2 °F 60% 30.15 in 10.0 mi Calm Calm - N/A   Clear
9:55 AM 35.6 °F 31.7 °F 21.2 °F 56% 30.15 in 10.0 mi ENE 4.6 mph - N/A   Clear
10:15 AM 35.6 °F 31.7 °F 19.4 °F 52% 30.14 in 10.0 mi ENE 4.6 mph - N/A   Clear
10:35 AM 37.4 °F - 19.4 °F 48% 30.14 in 10.0 mi Calm Calm - N/A   Clear
10:55 AM 37.4 °F - 17.6 °F 45% 30.15 in 10.0 mi Calm Calm - N/A   Clear
11:15 AM 39.2 °F - 17.6 °F 42% 30.14 in 10.0 mi Calm Calm - N/A   Clear
11:35 AM 39.2 °F - 17.6 °F 42% 30.12 in 10.0 mi Calm Calm - N/A   Clear
11:55 AM 41.0 °F 38.0 °F 17.6 °F 39% 30.12 in 10.0 mi SSW 4.6 mph - N/A   Clear
12:15 PM 41.0 °F 38.0 °F 17.6 °F 39% 30.12 in 10.0 mi West 4.6 mph - N/A   Clear
12:35 PM 42.8 °F 41.1 °F 17.6 °F 36% 30.11 in 10.0 mi SSW 3.5 mph - N/A   Clear
12:55 PM 42.8 °F 40.1 °F 17.6 °F 36% 30.09 in 10.0 mi WSW 4.6 mph - N/A   Clear
1:15 PM 44.6 °F 40.2 °F 17.6 °F 34% 30.08 in 10.0 mi SW 8.1 mph - N/A   Clear
1:35 PM 44.6 °F 40.7 °F 17.6 °F 34% 30.08 in 10.0 mi SSW 6.9 mph - N/A   Clear
1:55 PM 44.6 °F 42.2 °F 17.6 °F 34% 30.07 in 10.0 mi SSW 4.6 mph - N/A   Clear
2:15 PM 46.4 °F 42.9 °F 17.6 °F 32% 30.07 in 10.0 mi SW 6.9 mph - N/A   Clear
2:35 PM 46.4 °F 42.9 °F 17.6 °F 32% 30.07 in 10.0 mi SW 6.9 mph - N/A   Clear
2:55 PM 46.4 °F 42.9 °F 19.4 °F 34% 30.06 in 10.0 mi WSW 6.9 mph - N/A   Clear
3:15 PM 46.4 °F 42.9 °F 17.6 °F 32% 30.06 in 10.0 mi SW 6.9 mph - N/A   Clear
3:35 PM 46.4 °F 41.9 °F 17.6 °F 32% 30.05 in 10.0 mi SSW 9.2 mph - N/A   Clear
3:55 PM 46.4 °F 42.4 °F 17.6 °F 32% 30.05 in 10.0 mi SW 8.1 mph - N/A   Clear
4:15 PM 46.4 °F 44.3 °F 17.6 °F 32% 30.05 in 10.0 mi SW 4.6 mph - N/A   Clear
4:35 PM 46.4 °F 43.5 °F 17.6 °F 32% 30.04 in 10.0 mi SW 5.8 mph - N/A   Clear
4:55 PM 44.6 °F 39.7 °F 19.4 °F 37% 30.04 in 10.0 mi SSW 9.2 mph - N/A   Clear
5:15 PM 44.6 °F 40.7 °F 19.4 °F 37% 30.03 in 10.0 mi South 6.9 mph - N/A   Clear
5:35 PM 42.8 °F 38.6 °F 23.0 °F 46% 30.02 in 10.0 mi SSE 6.9 mph - N/A   Clear
5:55 PM 42.8 °F 39.3 °F 23.0 °F 46% 30.01 in 10.0 mi South 5.8 mph - N/A   Clear
6:15 PM 42.8 °F 38.6 °F 23.0 °F 46% 30.02 in 10.0 mi SSW 6.9 mph - N/A   Clear
6:35 PM 42.8 °F 38.0 °F 23.0 °F 46% 30.02 in 10.0 mi SSW 8.1 mph - N/A   Clear
6:55 PM 42.8 °F 37.5 °F 23.0 °F 46% 30.02 in 10.0 mi SSW 9.2 mph - N/A   Scattered Clouds
7:15 PM 42.8 °F 38.6 °F 23.0 °F 46% 30.03 in 10.0 mi South 6.9 mph - N/A   Clear
7:35 PM 42.8 °F 41.1 °F 24.8 °F 49% 30.03 in 10.0 mi SSW 3.5 mph - N/A   Clear
8:15 PM 42.8 °F 38.6 °F 24.8 °F 49% 30.02 in 10.0 mi SSW 6.9 mph - N/A   Clear
8:35 PM 41.0 °F 35.2 °F 24.8 °F 53% 30.03 in 10.0 mi South 9.2 mph - N/A   Scattered Clouds
8:55 PM 39.2 °F 34.2 °F 24.8 °F 56% 30.02 in 10.0 mi South 6.9 mph - N/A   Clear
9:15 PM 39.2 °F 34.2 °F 24.8 °F 56% 30.02 in 10.0 mi South 6.9 mph - N/A   Clear
9:35 PM 41.0 °F 36.4 °F 26.6 °F 57% 30.02 in 10.0 mi South 6.9 mph - N/A   Clear
9:55 PM 41.0 °F 38.0 °F 26.6 °F 57% 30.02 in 10.0 mi SSW 4.6 mph - N/A   Clear
10:15 PM 39.2 °F 37.0 °F 26.6 °F 61% 30.02 in 10.0 mi SSW 3.5 mph - N/A   Clear
10:35 PM 37.4 °F 33.8 °F 26.6 °F 65% 30.02 in 10.0 mi South 4.6 mph - N/A   Clear
10:55 PM 37.4 °F 32.8 °F 26.6 °F 65% 30.01 in 10.0 mi South 5.8 mph - N/A   Clear
11:15 PM 37.4 °F 32.1 °F 26.6 °F 65% 30.01 in 10.0 mi South 6.9 mph - N/A   Clear
11:35 PM 39.2 °F 34.2 °F 26.6 °F 61% 30.01 in 10.0 mi South 6.9 mph - N/A   Scattered Clouds
11:55 PM 39.2 °F 33.6 °F 26.6 °F 61% 30.00 in 10.0 mi South 8.1 mph - N/A   Scattered Clouds